sat.trackr.live / text

‹ back to catalog

STARLINK-37791

NORAD 69336 · 2026-122H

PAYLOAD ACTIVE UNKNOWN

§ Identity

Operator
Country
US
Launch date
2026-06-03
Launch site
AFWTR
Launch vehicle
Mass (kg)
RCS (m²)

Purposes: comms

External: N2YO · Heavens-Above · Gunter

§ Orbital elements

Epoch: 2026-09-20T00:29:27.126240Z

Period
93.91 min
Inclination
97.2821°
Eccentricity
0.0003275
Mean motion
15.33457899 rev/d
Perigee alt
463.3 km
Apogee alt
467.7 km
Semi-major
6,843.6 km
B*
4.3281e-4
RAAN
291.6119°
Arg perigee
109.7523°
Mean anomaly
250.4073°
Rev number
1,672

§ Raw data

STARLINK-377911 69336U 26122H   26263.02045285  .00013931  00000+0  43281-3 0  99922 69336  97.2821 291.6119 0003275 109.7523 250.4073 15.33457899 16722

JSON: /api/v1/satellites/69336 · /tle

For live sub-satellite position, see the globe view (requires WebGL).

§ Visibility from observer

Set your observer location to see the next 7 days of passes ≥ 10°. The values pass through the URL so the page stays shareable.

No JS? Fill the form by hand. The geolocation button needs JavaScript.